Regional Weather Roundup
Issued by NWS

Home | Current Version | Previous Version | Graphics & Text | Print | Product List | Glossary On
Versions: 1 2 3 4 5 6 7 8 9 10 11 12 13 14 15 16 17 18 19 20 21 22 23 24 25 26 27 28 29 30 31 32 33 34 35 36 37 38 39 40 41 42 43 44 45 46 47 48 49 50
000
ASUS45 KPSR 010700
RWRAZ

ARIZONA HOURLY REGIONAL WEATHER ROUNDUP
NATIONAL WEATHER SERVICE PHOENIX AZ
1200 AM MST TUE SEP 01 2015

NOTE: FAIR INDICATES FEW OR NO CLOUDS BELOW 12,000 FEET WITH NO
SIGNIFICANT WEATHER AND/OR OBSTRUCTIONS TO VISIBILITY.

AZZ001>003-036-010800-
NORTHWEST ARIZONA

CITY           SKY/WX    TMP DP  RH WIND       PRES   REMARKS
KINGMAN        CLEAR     81  50  33 S10       29.98R
$$

AZZ004>008-015-016-018-010800-
NORTH CENTRAL ARIZONA

CITY           SKY/WX    TMP DP  RH WIND       PRES   REMARKS
GRAND CANYON   LGT RAIN  61  54  77 S9          N/A
WILLIAMS       PTCLDY    59  48  67 S10       30.33R
PRESCOTT       PTCLDY    69  56  62 SE8       30.17R
FLAGSTAFF      NOT AVBL
PAYSON         RAIN      63  61  94 S10G21    30.27S
PAGE           CLEAR     74  52  46 S6        30.09R
$$

AZZ009>014-017-010800-
NORTHEAST ARIZONA

CITY           SKY/WX    TMP DP  RH WIND       PRES   REMARKS
WINSLOW        NOT AVBL
SAINT JOHNS    CLOUDY    64  54  69 S5        30.22F
WINDOW ROCK    MOCLDY    60  51  72 NE3       30.30S
SHOW LOW       CLOUDY    57  52  82 SW6       30.30R
$$

AZZ023-010800-
GREATER PHOENIX AREA

CITY           SKY/WX    TMP DP  RH WIND       PRES   REMARKS
PHOENIX          N/A    N/A N/A N/A MISG      29.93R
LUKE AFB       PTCLDY    83  67  57 E20G28    29.93R
DEER VALLEY    CLOUDY    82  62  50 E12       29.94R
SCOTTSDALE     MOCLDY    83  62  49 E13       29.96R
MESA-GATEWAY   MOCLDY    75  68  78 E13       29.99R
$$

AZZ027-028-010800-
SOUTHWEST MARICOPA COUNTY AND PINAL COUNTY

CITY           SKY/WX    TMP DP  RH WIND       PRES   REMARKS
CASA GRANDE    MOCLDY    77  64  65 E17       29.95R
GILA BEND      FAIR      92  43  18 S3        29.87R
$$

AZZ503-504-507>509-010800-
SOUTHEAST ARIZONA

CITY           SKY/WX    TMP DP  RH WIND       PRES   REMARKS
TUCSON         TSTM      75  67  76 E8        30.06R
DAVIS-MONTHAN  TSTM      75  66  73 E17G24    30.06R
NOGALES        MOCLDY    67  63  87 NE5       30.12R
SIERRA VISTA   MOCLDY    70  58  64 N9        30.19R
$$

AZZ020-021-025-026-031-010800-
SOUTHWEST ARIZONA

CITY           SKY/WX    TMP DP  RH WIND       PRES   REMARKS
YUMA           NOT AVBL
$$

CAZ031-033-041-043-047-048-061-010800-
SOUTHERN CALIFORNIA

CITY           SKY/WX    TMP DP  RH WIND       PRES   REMARKS
DOWNTOWN L.A.  CLOUDY    71  63  75 CALM      29.90S
L.A. AIRPORT   MOCLDY    71  65  81 VRB5      29.91S
SAN DIEGO      MOCLDY    70  61  73 S6        29.93S
BURBANK        CLOUDY    70  62  76 S5        29.92R
ONTARIO        CLEAR     67  61  81 W8        29.93R
RIVERSIDE      CLEAR     68  61  78 W3        29.93R
PALM SPRINGS   CLEAR     87  43  21 S6        29.77S
EL CENTRO NAS  CLEAR     90  30  11 W12       29.76R
IMPERIAL       CLEAR     90  32  12 NE6       29.74R
BLYTHE         CLEAR     89  63  41 S13       29.78R
$$

NVZ020-UTZ003-010800-
SOUTHERN NEVADA-UTAH

CITY           SKY/WX    TMP DP  RH WIND       PRES   REMARKS
LAS VEGAS      NOT AVBL
SALT LAKE CITY MOCLDY    75  42  30 SE12      29.96S
$$

NMZ009-TXZ055-010800-
NEW MEXICO-WEST TEXAS

CITY           SKY/WX    TMP DP  RH WIND       PRES   REMARKS
ALBUQUERQUE    MOCLDY    73  48  41 CALM      30.18S
EL PASO        PTCLDY    86  42  21 CALM      30.02F
$$


........................KEY........................
SKY/WX - SKY CONDITION/WEATHER
TMP    - TEMPERATURE IN FAHRENHEIT
DP     - DEW POINT IN FAHRENHEIT
RH     - RELATIVE HUMIDITY IN PERCENT
WIND   - DIRECTION AND SPEED IN MILES PER HOUR (MPH)
VRB    - VARIABLE WIND DIRECTION
PRES   - MEAN SEA LEVEL PRESSURE IN INCHES OF MERCURY
         F - FALLING PRESSURE   R - RISING PRESSURE
         S - STEADY PRESSURE
VSB    - VISIBILITY IN MILES
HX     - HEAT INDEX IN FAHRENHEIT
WCI    - WIND CHILL INDEX IN FAHRENHEIT
TC     - TEMPERATURE IN CELSIUS WHICH IS ALSO KNOWN AS
         TEMPERATURE IN CENTIGRADE
AFB    - AIR FORCE BASE
         LUKE AFB IS LUKE AIR FORCE BASE
         DAVIS-MONTHAN IS DAVIS-MONTHAN AIR FORCE BASE
NAS    - NAVAL AIR STATION
         EL CENTRO NAS IS EL CENTRO NAVAL AIR STATION
N/A    - NOT AVAILABLE




USA.gov is the U.S. government's official web portal to all federal, state and local government web resources and services.